Regional Weather Roundup
Issued by NWS Charleston, WV

Home | Current Version | Previous Version | Graphics & Text | Print | Product List | Glossary On
Versions: 1 2 3 4 5 6 7 8 9 10 11 12 13 14 15 16 17 18 19 20 21 22 23 24 25 26 27 28 29 30 31 32 33 34 35 36 37 38 39 40 41 42 43 44 45 46 47 48
000
ASUS41 KRLX 300910
RWRRLX
West Virginia Regional Weather Roundup
National Weather Service Charleston WV
500 AM EDT SUN AUG 30 2015

Note: "fair" indicates few or no clouds below 12,000 feet with no
significant weather and/or obstructions to visibility.

WVZ003-301000-
Northern Panhandle of West Virginia

CITY           SKY/WX    TMP DP  RH WIND       PRES   REMARKS
WHEELING       LGT RAIN  67  65  93 S5        30.12R FOG
$$

WVZ009-301000-
Northwest West Virginia

CITY           SKY/WX    TMP DP  RH WIND       PRES   REMARKS
PARKERSBURG    MOCLDY    64  61  90 CALM      30.12S
$$

WVZ006-301000-
Western West Virginia

CITY           SKY/WX    TMP DP  RH WIND       PRES   REMARKS
HUNTINGTON     CLOUDY    68  65  90 CALM      30.10S
$$

WVZ015-301000-
West Central West Virginia

CITY           SKY/WX    TMP DP  RH WIND       PRES   REMARKS
CHARLESTON     PTCLDY    63  61  93 CALM      30.12R FOG
$$

WVZ022-031-301000-
North Central West Virginia

CITY           SKY/WX    TMP DP  RH WIND       PRES   REMARKS
CLARKSBURG     MOCLDY    61  60  97 CALM      30.12S
MORGANTOWN     MOCLDY    66  59  78 CALM      30.13S
$$

WVZ025-035-042-045-301000-
Southern West Virginia

CITY           SKY/WX    TMP DP  RH WIND       PRES   REMARKS
BECKLEY        PTCLDY    63  57  81 CALM      30.20S
LOGAN            N/A     66  63  88 CALM      30.15S
BLUEFIELD      CLOUDY    65  57  75 W5        30.23R
LEWISBURG      MOCLDY    60  58  94 CALM      30.20S FOG
$$

WVZ047-301000-
Northern Mountains of West Virginia

CITY           SKY/WX    TMP DP  RH WIND       PRES   REMARKS
ELKINS         FOG       54  52  93 CALM      30.20S VSB 1/2
$$

WVZ052-301000-
Eastern Panhandle of West Virginia

CITY           SKY/WX    TMP DP  RH WIND       PRES   REMARKS
MARTINSBURG    CLEAR     61  60  97 CALM      30.09F FOG
PETERSBURG     CLEAR     57  57  97 CALM      30.14S FOG
$$



USA.gov is the U.S. government's official web portal to all federal, state and local government web resources and services.